User: anonymous
Location: Unspecified
(0.0000°N, 0.0000°E)
Time: 14:43:19
(UTC+02:00)
Language:

Resurs 1-3 - Orbit

View from above orbital plane
View from above orbital plane
View from above satellite
View from above satellite

Ground track
Ground track

The orbit data is extracted from the following two-line orbital elements,

1 23342U 94074A   14209.65190334  .00000264  00000-0  43608-4 0  2524
2 23342 098.1662 220.4148 0000931 124.0287 010.2416 14.78424791 61914
Epoch (UTC): 28 July 2014 15:38:44
Eccentricity: 0.0000931
inclination: 98.1662°
perigee height: 633 km
apogee height: 635 km
right ascension of ascending node: 220.4148°
argument of perigee: 124.0287°
revolutions per day: 14.78424791
mean anomaly at epoch: 10.2416°
orbit number at epoch: 6191

The dashed part of the orbit path shows where the satellite is in the earth's shadow,  

DLR